Terug naar catalogus

OPS 0856 DEB

LostPO
NORAD 25828·DEBRIS·🇺🇸 United States

Gelanceerd Aug 19, 1966 vanaf Vandenberg Space Force Base

Loading…

Volgende Passages (komende 24 uur)

TLE

VerouderdSource: Space-Track

Epoch: Aug 9, 2011, 16:21 UTC

1 25828U 66077V   11221.68160030 -.00000001 +00000-0 +10000-3 0  9998
2 25828 089.0988 108.0361 1335043 285.5003 058.4376 08.79832763451668

Volg OPS 0856 DEB in realtime met AllMySat

Download on the App Store